[[{"header":{"parameterUnit":"m.s-1","parameterCategory":1,"la1":30.2991,"la2":30.254,"lo1":-89.0895,"lo2":-89.0444,"dy":0.0017,"dx":0.0017,"nx":28,"ny":28,"refTime":"2024-08-25T09:00:00:Z","depth":0,"parameterNumber":2,"parameterNumberName":"U-component_of_WINDS"},"data":[0,0,0,0,0,0,0,0,0,0,0,0,0,0,0,0,0,0,0,0,0,0,0,0,0,0,0,0,0,0,0,0,0,0,0,0,0,0,0,0,0,0,0,0,0,0,0,0,0,0,0,0,0,0,0,0,0,0,-4.3594,-4.3594,0,-4.3582,-4.3582,-4.3582,-4.345,-4.3446,-4.3443,-4.344,-4.3428,-4.343,-4.3433,0,0,0,0,0,0,0,0,0,0,0,0,0,-4.3503,-4.3505,-4.3594,-4.3594,-4.3594,-4.3582,-4.3582,-4.3582,-4.345,-4.3446,-4.3442,-4.3439,-4.3427,-4.343,-4.3433,0,0,0,0,0,0,0,0,0,0,0,0,0,-4.3522,-4.3506,-4.3594,-4.3527,-4.3521,-4.3583,-4.3582,-4.3582,-4.3451,-4.3446,-4.3441,-4.3437,-4.3426,-4.343,-4.3434,-4.3559,0,0,-4.3447,-4.3448,0,0,0,0,0,0,0,0,-4.3521,-4.3526,-4.3537,-4.3532,-4.3525,-4.3512,-4.3545,-4.3574,-4.3453,-4.3478,-4.344,-4.3434,-4.346,-4.3461,-4.347,-4.3559,-4.3558,-4.3447,-4.3449,-4.3451,-4.3452,0,0,0,0,0,0,0,-4.352,-4.3525,-4.359,-4.3537,-4.353,-4.3497,-4.3494,-4.355,-4.3497,-4.3475,-4.3465,-4.3466,-4.3456,-4.3466,-4.3468,-4.3558,-4.3447,-4.3451,-4.3453,-4.3455,-4.3748,-4.3753,0,0,0,0,0,0,-4.3528,-4.3525,-4.359,-4.3589,-4.3511,-4.3503,-4.35,-4.3522,-4.3496,-4.3487,-4.347,-4.346,-4.3461,-4.3464,-4.3468,-4.3611,-4.3451,-4.3455,-4.3457,-4.3743,-4.3749,-4.3755,0,0,0,0,0,0,-4.3527,-4.3535,-4.359,-4.3555,-4.3559,-4.351,-4.3535,-4.3524,-4.3534,-4.3492,-4.3482,-4.349,-4.3458,-4.3462,-4.3537,-4.3609,-4.3457,-4.3461,-4.3737,-4.3745,-4.3752,-4.39,0,0,0,0,0,0,-4.3525,-4.3535,-4.3583,-4.3557,-4.3562,-4.3661,-4.354,-4.3527,-4.3542,-4.3528,-4.3509,-4.3501,-4.3454,-4.3532,-4.3541,-4.3612,-4.3464,-4.373,-4.374,-4.375,-4.3889,-4.3912,-4.3933,0,0,0,0,0,-4.3522,-4.3625,-4.3586,-4.3594,-4.3619,-4.3665,-4.3668,-4.3612,-4.3548,-4.3594,-4.3568,-4.3501,-4.36,-4.3541,-4.355,-4.3623,-4.3725,-4.3737,-4.3749,-4.3879,-4.3908,-4.3932,0,0,0,0,0,0,-4.366,-4.362,-4.3576,-4.3674,-4.3674,-4.3643,-4.37,-4.3645,-4.3663,-4.3649,-4.3579,-4.3576,-4.3662,-4.365,-4.3585,-4.3743,-4.3651,-4.3665,-4.3747,-4.3774,-4.3795,-4.3795,-4.3467,0,0,0,0,0,-4.3703,-4.3743,-4.3706,-4.3796,-4.3798,-4.375,-4.3767,-4.3725,-4.3722,-4.3721,-4.3699,-4.3699,-4.373,-4.3751,-4.3778,-4.3888,-4.3881,-4.3943,-4.3964,-4.3983,-4.3995,-4.4051,-4.4078,-4.3794,-4.3794,-4.3794,0,0,-4.3789,-4.3773,-4.3802,-4.3823,-4.3818,-4.3861,-4.375,-4.3801,-4.3832,-4.3728,-4.3797,-4.3783,-4.3778,-4.3871,-4.3911,-4.3863,-4.4072,-4.3998,-4.4013,-4.4015,-4.4066,-4.4093,-4.4117,-4.3802,-4.3801,-4.38,0,0,-4.3969,-4.3962,-4.4035,-4.4032,-4.4026,-4.3993,-4.4011,-4.3988,-4.3974,-4.4043,-4.3966,-4.4002,-4.4057,-4.4056,-4.4063,-4.4244,-4.4183,-4.4255,-4.4369,-4.4424,-4.4446,-4.4466,-4.4529,-4.4552,-4.4268,-4.4269,-4.4269,0,-4.4078,-4.414,-4.408,-4.4135,-4.4146,-4.4055,-4.4128,-4.4129,-4.4132,-4.4142,-4.4089,-4.4156,-4.4146,-4.4237,-4.4281,-4.4291,-4.4308,-4.4256,-4.4448,-4.4467,-4.4484,-4.4543,-4.4567,-4.4277,-4.4276,-4.4275,-4.4275,0,-4.4273,-4.4317,-4.4377,-4.4382,-4.44,-4.4465,-4.4414,-4.444,-4.4396,-4.4369,-4.444,-4.4426,-4.4447,-4.4466,-4.4424,-4.4551,-4.4522,-4.4461,-4.4366,-4.4521,-4.4575,-4.4597,-4.429,-4.4287,-4.4284,-4.4282,0,0,-4.4538,-4.4509,-4.4532,-4.4532,-4.4519,-4.4552,-4.4613,-4.4633,-4.4656,-4.4662,-4.471,-4.4759,-4.4702,-4.471,-4.4667,-4.4717,-4.4859,-4.4648,-4.4647,-4.4686,-4.4997,-4.5042,-4.5069,-4.482,-4.4824,-4.4827,-4.4997,0,-4.4709,-4.481,-4.4758,-4.4865,-4.4905,-4.482,-4.4872,-4.487,-4.4847,-4.4877,-4.4851,-4.4886,-4.4809,-4.4813,-4.4858,-4.4832,-4.492,-4.482,-4.4863,-4.4865,-4.4864,-4.5097,-4.5145,-4.5305,-4.5018,-4.5021,-4.5024,0,-4.4922,-4.4937,-4.5048,-4.5027,-4.5042,-4.509,-4.5104,-4.5135,-4.513,-4.511,-4.512,-4.5066,-4.5123,-4.5033,-4.511,-4.5043,-4.5058,-4.5049,-4.5053,-4.5053,-4.4952,-4.5102,-4.5355,-4.5379,-4.5057,-4.5054,-4.5052,0,-4.5102,-4.5149,-4.5221,-4.5225,-4.5203,-4.5239,-4.5231,-4.5222,-4.5238,-4.5251,-4.526,-4.5281,-4.5292,-4.5309,-4.5261,-4.52,-4.5345,-4.5251,-4.5329,-4.533,-4.5361,-4.5359,-4.5619,-4.5375,-4.5375,-4.5375,-4.5374,0,-4.5297,-4.5368,-4.5301,-4.5346,-4.5423,-4.5363,-4.5441,-4.5424,-4.5417,-4.5457,-4.5386,-4.5424,-4.536,-4.5393,-4.5357,-4.5426,-4.5432,-4.5416,-4.5405,-4.5421,-4.5423,-4.5428,-4.5415,-4.5381,-4.538,-4.5378,-4.5377,0,-4.551,-4.5468,-4.5541,-4.5514,-4.551,-4.5567,-4.5544,-4.5584,-4.5557,-4.5608,-4.5616,-4.5573,-4.5607,-4.5562,-4.5593,-4.5568,-4.5663,-4.5636,-4.5664,-4.5655,-4.5735,-4.5728,-4.6005,-4.6038,-4.5776,-4.5779,-4.5781,0,-4.5636,-4.5688,-4.5668,-4.5689,-4.5686,-4.5721,-4.5737,-4.568,-4.57,-4.5699,-4.5739,-4.5768,-4.5787,-4.5846,-4.5817,-4.584,-4.5812,-4.5908,-4.5815,-4.5829,-4.5811,-4.5808,-4.5812,-4.5926,-4.593,-4.5932,-4.5934,0,-4.5864,-4.5841,-4.5866,-4.5885,-4.5905,-4.5917,-4.5924,-4.5945,-4.5886,-4.5912,-4.5946,-4.5961,-4.5992,-4.6021,-4.6036,-4.6028,-4.5972,-4.5964,-4.5983,-4.5999,-4.6012,-4.6004,-4.5713,-4.5957,-4.5955,-4.5953,-4.5952,-4.5951,-4.6036,-4.6078,-4.607,-4.61,-4.6099,-4.6107,-4.6143,-4.612,-4.6148,-4.6168,-4.6133,-4.6177,-4.6171,-4.6186,-4.6185,-4.6217,-4.6176,-4.6204,-4.621,-4.6218,-4.6229,-4.6009,-4.622,-4.622,-4.6219,-4.6218,-4.6218,0,-4.6258,-4.6249,-4.6278,-4.6289,-4.6313,-4.6258,-4.6263,-4.6287,-4.6325,-4.6325,-4.6346,-4.6385,-4.6413,-4.6387,-4.641,-4.6441,-4.6416,-4.6449,-4.6445,-4.6444,-4.6266,-4.6246,-4.6469,-4.6469,-4.6469,-4.6469,-4.6469,-4.6469,-4.6377,-4.6445,-4.6422,-4.6489,-4.6479,-4.652,-4.6527,-4.6534,-4.6533,-4.658,-4.6603,-4.6586,-4.6575,-4.6597,-4.662,-4.6612,-4.6623,-4.6665,-4.6648,-4.6481,-4.6456,-4.6433,-4.6414,-4.6668,-4.6669,-4.6822,-4.6824,-4.6825]},{"header":{"parameterUnit":"m.s-1","parameterCategory":1,"la1":30.2991,"la2":30.254,"lo1":-89.0895,"lo2":-89.0444,"dy":0.0017,"dx":0.0017,"nx":28,"ny":28,"refTime":"2024-08-25T09:00:00:Z","depth":0,"parameterNumber":3,"parameterNumberName":"V-component_of_WINDS"},"data":[0,0,0,0,0,0,0,0,0,0,0,0,0,0,0,0,0,0,0,0,0,0,0,0,0,0,0,0,0,0,0,0,0,0,0,0,0,0,0,0,0,0,0,0,0,0,0,0,0,0,0,0,0,0,0,0,0,0,2.1458,2.1457,0,2.1428,2.1427,2.1427,2.142,2.142,2.142,2.142,2.1384,2.1383,2.1382,0,0,0,0,0,0,0,0,0,0,0,0,0,2.1505,2.1504,2.1458,2.1457,2.1457,2.1428,2.1427,2.1427,2.142,2.142,2.142,2.142,2.1385,2.1383,2.1382,0,0,0,0,0,0,0,0,0,0,0,0,0,2.148,2.1504,2.1458,2.145,2.1449,2.1428,2.1427,2.1427,2.1419,2.142,2.142,2.142,2.1385,2.1383,2.1382,2.1365,0,0,2.1376,2.1376,0,0,0,0,0,0,0,0,2.1482,2.1478,2.1451,2.145,2.1449,2.1428,2.1431,2.1406,2.1419,2.143,2.142,2.1421,2.1398,2.1395,2.1389,2.1363,2.1361,2.1376,2.1375,2.1375,2.1374,0,0,0,0,0,0,0,2.1483,2.148,2.1446,2.1451,2.145,2.1446,2.1443,2.1426,2.1413,2.143,2.1429,2.1426,2.1398,2.1391,2.1388,2.1361,2.1376,2.1375,2.1374,2.1373,2.1319,2.1318,0,0,0,0,0,0,2.1487,2.1481,2.1447,2.1445,2.1467,2.1445,2.1442,2.1434,2.1413,2.141,2.1426,2.1426,2.1393,2.139,2.1387,2.1365,2.1375,2.1373,2.1372,2.1319,2.1319,2.1318,0,0,0,0,0,0,2.1488,2.1484,2.1448,2.1463,2.1458,2.1444,2.1436,2.1433,2.1426,2.141,2.1407,2.1421,2.1393,2.1389,2.137,2.1363,2.1372,2.1371,2.132,2.1319,2.1319,2.1321,0,0,0,0,0,0,2.1489,2.1484,2.1479,2.1463,2.1457,2.1433,2.1435,2.1433,2.1424,2.1424,2.1405,2.1402,2.1393,2.1373,2.1369,2.1361,2.1369,2.132,2.1319,2.1319,2.1322,2.1321,2.132,0,0,0,0,0,2.1491,2.148,2.1478,2.1474,2.145,2.1433,2.143,2.1421,2.1424,2.1417,2.1407,2.1403,2.1365,2.1371,2.1366,2.1358,2.1321,2.132,2.1319,2.1322,2.1321,2.132,0,0,0,0,0,0,2.1493,2.1477,2.1476,2.1459,2.1448,2.1432,2.1423,2.142,2.1407,2.1407,2.1396,2.1391,2.1373,2.1364,2.1371,2.134,2.1343,2.1341,2.1347,2.1346,2.1345,2.1347,2.1368,0,0,0,0,0,2.1492,2.1481,2.1467,2.1454,2.1448,2.1437,2.1429,2.1424,2.1411,2.1405,2.1393,2.1379,2.1365,2.1355,2.134,2.1321,2.1316,2.1313,2.1312,2.1311,2.1309,2.1298,2.1296,2.1315,2.1315,2.1315,0,0,2.1489,2.1479,2.1472,2.1454,2.1445,2.1432,2.1433,2.1419,2.1409,2.1403,2.1385,2.1376,2.1359,2.134,2.1331,2.1332,2.1303,2.131,2.131,2.1308,2.1297,2.1295,2.1293,2.1315,2.1315,2.1315,0,0,2.1477,2.1469,2.1457,2.1447,2.1434,2.1426,2.1423,2.1408,2.1402,2.1385,2.1379,2.1367,2.1341,2.133,2.1321,2.1305,2.1301,2.1301,2.1296,2.1285,2.1283,2.1282,2.1275,2.1273,2.1299,2.1299,2.1299,0,2.1474,2.1457,2.145,2.1437,2.1429,2.1425,2.1411,2.1402,2.1384,2.1377,2.1379,2.1347,2.1336,2.1314,2.131,2.1303,2.1299,2.1302,2.1284,2.1283,2.1281,2.1275,2.1273,2.1299,2.1299,2.1299,2.1299,0,2.1454,2.1441,2.1433,2.1417,2.1408,2.1395,2.1385,2.1376,2.1372,2.1364,2.1346,2.1332,2.1315,2.1309,2.1304,2.1286,2.1287,2.1287,2.1289,2.1279,2.1273,2.1271,2.1299,2.1299,2.1299,2.1299,0,0,2.1441,2.1423,2.1419,2.1412,2.1397,2.1387,2.1373,2.1358,2.135,2.1338,2.1325,2.1304,2.1304,2.1293,2.1287,2.1278,2.1265,2.1278,2.1277,2.1275,2.1244,2.1243,2.1241,2.1263,2.1262,2.1262,2.1245,0,2.1426,2.1403,2.1398,2.1378,2.1366,2.1362,2.135,2.1338,2.1331,2.1318,2.1309,2.1294,2.1296,2.1289,2.128,2.1269,2.1258,2.127,2.1249,2.1249,2.1253,2.1238,2.1237,2.1222,2.1242,2.1242,2.1242,0,2.1405,2.1394,2.1374,2.1361,2.1355,2.1345,2.133,2.1319,2.1306,2.1301,2.129,2.1285,2.1269,2.1273,2.1251,2.1259,2.125,2.1243,2.1243,2.1239,2.1244,2.1233,2.1216,2.1214,2.1238,2.1238,2.1238,0,2.1397,2.1377,2.1362,2.1356,2.134,2.1333,2.1326,2.1313,2.1304,2.1291,2.1285,2.127,2.1261,2.1248,2.1239,2.1243,2.1217,2.122,2.1211,2.1211,2.1204,2.1205,2.1185,2.1201,2.1201,2.1201,2.1201,0,2.1381,2.1368,2.1358,2.1349,2.1334,2.1327,2.1312,2.1305,2.1294,2.1282,2.1277,2.1265,2.1254,2.1241,2.1233,2.1215,2.1211,2.1205,2.1203,2.1205,2.1206,2.1198,2.1199,2.12,2.12,2.12,2.12,0,2.1368,2.1362,2.1345,2.1332,2.1328,2.1318,2.1306,2.1296,2.1289,2.1274,2.127,2.1258,2.1242,2.1232,2.1211,2.1206,2.1186,2.1184,2.1191,2.1189,2.118,2.1181,2.1154,2.115,2.1169,2.1169,2.1169,0,2.1358,2.1348,2.1335,2.1327,2.132,2.1308,2.13,2.1293,2.1284,2.1268,2.126,2.1244,2.1231,2.1205,2.1194,2.1178,2.1175,2.1167,2.1172,2.1175,2.1174,2.1174,2.1172,2.1165,2.1165,2.1165,2.1165,0,2.1339,2.1337,2.1325,2.1313,2.1303,2.1293,2.1282,2.1276,2.1267,2.1257,2.1241,2.1231,2.1211,2.1195,2.1178,2.1169,2.1165,2.1164,2.1161,2.1162,2.1165,2.1162,2.1187,2.1164,2.1164,2.1164,2.1164,2.1164,2.1327,2.1318,2.1307,2.1295,2.1286,2.1277,2.1267,2.1259,2.1247,2.1231,2.1227,2.1211,2.1197,2.1175,2.1165,2.1151,2.1152,2.1148,2.1146,2.1145,2.1144,2.1169,2.1148,2.1148,2.1148,2.1148,2.1148,0,2.1307,2.13,2.1289,2.1275,2.1265,2.1265,2.1253,2.1244,2.1231,2.1219,2.1207,2.1189,2.1174,2.1162,2.1145,2.1136,2.1134,2.1132,2.1132,2.113,2.1145,2.1149,2.1134,2.1134,2.1134,2.1134,2.1134,2.1134,2.1296,2.1281,2.1277,2.1257,2.125,2.1236,2.1229,2.1219,2.121,2.1191,2.1179,2.1172,2.116,2.1143,2.1128,2.1125,2.1119,2.1117,2.1113,2.1127,2.1129,2.113,2.1134,2.1116,2.1116,2.1099,2.1098,2.1098]}]]